STARLINK-2161, 47747

Orbit data source: Space-Track

STARLINK-2161, 47747 is a payload satellite owned by SpaceX/Seattle (US) in LEO that was launched on Thu, 04 Mar 2021 UTC via an FALCON 9 launch vehicle from the Air Force Eastern Test Range (AFETR). Payload-class satellites include a variety of spacecraft equipped with specific instruments for various scientific and technological missions. These include communications satellites like Starlink; space stations such as the ISS; scientific satellites like the Hubble; Earth observation satellites from companies like Planet Labs, Umbra, and HawkEye 360; GPS; miniature CubeSats for education and research; and military/defense satellites.

Loading next visibility...
Identifier
47747, 2021-017AB
Orbit
LEO
Country
Flag of USUS
Related business
Manufacturer
SpaceX/Seattle
Mission
Operational Commercial Communications
Bus & Motor
STARLINK, Unknown motor
Mass
260 kg wet, ~248 kg dry
Launch date (UTC)
2021-03-04 (5 years ago)
Launch vehicle
FALCON 9
Launch site
Air Force Eastern Test Range (AFETR)
Object type
Payload
Rocket body
Debris
Shape & HBR
Box + 1 Pan, 10.1 m
Radar Cross Section
13.562 m², Large (>1 m²)

Expand to show TLE details & history
Last TLE update: 18 hours ago

TLE from 18 hours ago
0 STARLINK-2161
1 47747U 21017AB  26235.75456683  .00001652  00000-0  64998-4 0  9996
2 47747  53.1609 136.4581 0001280  97.7796 262.3351 15.31697967303618
Epoch: 2026-08-23T18:06Z
TLE epoch observation values (Epoch: 2026-08-23T18:06:34.574Z)
Latitude
0.00001°
Longitude
-107.23203°
Altitude
471.763 km
Speed
7.631 km/s
True Right ascension
09h 05m 49s
True Declination
0° 00' 00"
Sunlit
Object was in daylight at epoch
Visualization orbit readout
Latitude
Unknown
Longitude
Unknown
Altitude
Unknown
Speed
Unknown
Apparent Right ascension
Unknown
Apparent Declination
Unknown
Sunlit
N/A
Visualization observer readout
Local Sidereal Time
02:49:30
Azimuth
Unknown
Elevation
Unknown
Doppler factor
Unknown
Orbital elements
Apogee altitude
471.879 km
Perigee altitude
470.126 km
Semi-major axis
6,849.14 km
Eccentricity
0.00013
Inclination
53.1609°
RAAN
136.4581°
Arg. of periapsis
97.7796°
True anomaly
262.32056°
Mean anomaly
262.3351°
Eccentric anomaly
262.32783°
Mean motion
3.82903 °/min
Orbital period
94.02 mins
BSTAR
0.000064998
Loading maneuver chart data...
Computing Atmospheric mass density...

Documentation

Showing up to 5 results
|